Location: Clanezzo
(45.7500°N, 9.6000°E)
Time: 08:57:30
(UTC+00:00)

AO-92 - Pass Details

Date: 09 July 2022
Orbit: 469 x 481 km, 97.4° (Epoch: 09 August)

Event Time Altitude Azimuth Distance (km) Brightness Sun altitude
Exits shadow 20:49:16 21° 122° (ESE) 1,129 ? -13.1°
Maximum altitude 20:51:03 35° 71° (ENE) 803 ? -13.3°
Drops below altitude 10° 20:54:21 10° 5° (N) 1,675 ? -13.7°
Sets 20:56:32 0° 356° (N) 2,562 ? -13.9°
